NOAA 16 DEB

Satellite information

Favourite Embed

Satellite Type and Status

DEBRISIN ORBIT

Key statistics

Satellite NOAA 16 DEB at a glance.

Uptime

9056

Days in orbit

Revolutions

≈ 14.2

Per day

Orbit

SSO

Sun Synchronous Orbit

Inclination

98.7

Latest

Satellite identification and parameters

Extended collection of information and parameters for NOAA 16 DEB.

Object identification

Identified? True

Debris? True

Object name: NOAA 16 DEB

International designator: 2000-055GB

Object number (NORAD): 41275

Object ID (CCSDS): 41275

Country: UNITED STATES OF AMERICA (US)

Current information (Y/N): Y

RCS size: SMALL

Orbital parameters

Period: 101.102 minutes

Inclination: 98.6921 deg

SMA: 7188.974 km

Apoapsis: 826.966 km

Periapsis: 794.711 km

RAAN: 238.9446 deg

Eccentricy: 0.0022434

Argument of periapsis: 95.5426 deg

Mean anomaly: 264.8312 deg

Mean motion: 14.24303138 rev/day

Mean motion (dot): 0.00002843 rev/day2

B* drag term: 0.0012465 1/REarth

Two-line elements (TLE)

Creation date: July 5, 2025, 10:26 p.m.

Reference frame: TEME

Reference center: EARTH

Epoch: July 5, 2025, 2:11 p.m. UTC

TLE line 0: 0 NOAA 16 DEB

TLE line 1: 1 41275U 00055GB 25186.59121048 .00002843 00000-0 12465-2 0 9998

TLE line 2: 2 41275 98.6921 238.9446 0022434 95.5426 264.8312 14.24303138491827

Live tracking on map

Real-time ground track for satellite NOAA 16 DEB.

In-orbit conjunctions

A list of the most updated potential collisions computed for object NOAA 16 DEB.

Target Orbit TCA Probability of collision Miss distance Type
SL-12 R/B(AUX MOTOR) LEO 2025-07-03 22:50:28 0.0001315619 407.0 (m) ROCKET BODY
SS 3 LEO 2025-03-12 18:39:11 0.0001585158 551.0 (m) PAYLOAD

Associated space launch

The NOAA K, L and M POES satellites begin the fifth generation of improved environmental monitoring in support of NOAA missions. The instrument payload has significant improvements and additions/deletions. The instrument changes have effected the spacecraft subsystems and data formats.

NOAA 16 DEB was lifted into orbit during the mission ‘Titan II SLV | NOAA 16’, on board a Titan II SLV space rocket.

The launch took place on Sept. 21, 2000, 10:22 a.m. from Space Launch Complex 4W.

For more information about the launch, click the button.

Launch to space Titan II SLV | NOAA 16
Titan II SLV | NOAA 16

Agency: N/A

Status: Launch Successful

Launch date: Sept. 21, 2000, 10:22 a.m. UTC

Rocket: Titan II SLV

Launch pad: Space Launch Complex 4W

Location: Vandenberg SFB, CA, USA

...

Latest news about this satellite

There are no fresh news available about this satellite. Check back as we update our databases every day.


Newsletter sign-up

Weekly statistics, charts and insights to help you stay on top of the space industry.